Time,TemperatureF,DewpointF,PressureIn,WindDirection,WindDirectionDegrees,WindSpeedMPH,WindSpeedGustMPH,Humidity,HourlyPrecipIn,Conditions,Clouds,dailyrainin,SoftwareType,DateUTC
2013-09-22 00:04:00,54.8,45.6,29.94,SE,135,0.0,0.0,71,0.00,CLR,,0.00,WeatherDisplay:10.37,2013-09-21 14:04:00,
2013-09-22 00:09:00,54.6,45.4,29.94,South,171,0.0,1.0,71,0.00,CLR,,0.00,WeatherDisplay:10.37,2013-09-21 14:09:00,
2013-09-22 00:14:00,54.3,45.5,29.94,SW,220,0.0,1.0,72,0.00,CLR,,0.00,WeatherDisplay:10.37,2013-09-21 14:14:00,
2013-09-22 00:19:00,54.3,45.5,29.93,West,271,0.0,0.0,72,0.00,CLR,,0.00,WeatherDisplay:10.37,2013-09-21 14:19:00,
2013-09-22 00:24:00,54.3,45.5,29.93,ENE,60,0.0,0.0,72,0.00,CLR,,0.00,WeatherDisplay:10.37,2013-09-21 14:24:00,
2013-09-22 00:29:00,54.3,45.5,29.93,East,91,0.0,0.0,72,0.00,CLR,,0.00,WeatherDisplay:10.37,2013-09-21 14:29:00,
2013-09-22 00:34:00,54.1,44.9,29.93,ESE,111,0.0,0.0,71,0.00,CLR,,0.00,WeatherDisplay:10.37,2013-09-21 14:34:00,
2013-09-22 00:39:00,53.9,44.7,29.93,East,89,0.0,0.0,71,0.00,CLR,,0.00,WeatherDisplay:10.37,2013-09-21 14:39:00,
2013-09-22 00:44:00,53.8,45.0,29.93,NE,35,0.0,0.0,72,0.00,CLR,,0.00,WeatherDisplay:10.37,2013-09-21 14:44:00,
2013-09-22 00:49:00,53.8,45.0,29.93,NE,48,0.0,0.0,72,0.00,CLR,,0.00,WeatherDisplay:10.37,2013-09-21 14:49:00,
2013-09-22 00:54:00,53.8,45.0,29.93,ENE,78,0.0,1.0,72,0.00,CLR,,0.00,WeatherDisplay:10.37,2013-09-21 14:54:00,
2013-09-22 00:59:00,53.6,44.8,29.93,WSW,256,0.0,1.0,72,0.00,CLR,,0.00,WeatherDisplay:10.37,2013-09-21 14:59:00,
2013-09-22 01:04:00,53.3,44.9,29.93,WNW,301,0.0,0.0,73,0.00,CLR,,0.00,WeatherDisplay:10.37,2013-09-21 15:04:00,
2013-09-22 01:09:00,53.2,44.8,29.93,NNW,331,0.0,0.0,73,0.00,CLR,,0.00,WeatherDisplay:10.37,2013-09-21 15:09:00,
2013-09-22 01:14:00,53.2,44.8,29.93,North,7,0.0,0.0,73,0.00,CLR,,0.00,WeatherDisplay:10.37,2013-09-21 15:14:00,
2013-09-22 01:19:00,53.0,44.5,29.92,NNE,17,0.0,1.0,73,0.00,CLR,,0.00,WeatherDisplay:10.37,2013-09-21 15:19:00,
2013-09-22 01:24:00,53.2,44.8,29.92,North,7,0.0,1.0,73,0.00,CLR,,0.00,WeatherDisplay:10.37,2013-09-21 15:24:00,
2013-09-22 01:29:00,53.2,44.8,29.92,West,270,0.0,1.0,73,0.00,CLR,,0.00,WeatherDisplay:10.37,2013-09-21 15:29:00,
2013-09-22 01:34:00,53.2,44.8,29.92,WSW,237,0.0,1.0,73,0.00,CLR,,0.00,WeatherDisplay:10.37,2013-09-21 15:34:00,
2013-09-22 01:39:00,53.2,44.7,29.92,SW,226,0.0,0.0,73,0.00,CLR,,0.00,WeatherDisplay:10.37,2013-09-21 15:39:00,
2013-09-22 01:44:00,53.2,44.7,29.92,SW,231,0.0,0.0,73,0.00,CLR,,0.00,WeatherDisplay:10.37,2013-09-21 15:44:00,
2013-09-22 01:49:00,52.9,44.5,29.91,ENE,57,0.0,0.0,73,0.00,CLR,,0.00,WeatherDisplay:10.37,2013-09-21 15:49:00,
2013-09-22 01:54:00,52.9,44.5,29.91,NE,41,0.0,0.0,73,0.00,CLR,,0.00,WeatherDisplay:10.37,2013-09-21 15:54:00,
2013-09-22 01:59:00,52.7,44.3,29.91,NNW,341,0.0,0.0,73,0.00,CLR,,0.00,WeatherDisplay:10.37,2013-09-21 15:59:00,
2013-09-22 02:04:00,52.5,44.1,29.91,SW,235,0.0,0.0,73,0.00,CLR,,0.00,WeatherDisplay:10.37,2013-09-21 16:04:00,
2013-09-22 02:09:00,52.5,44.1,29.91,SSW,195,0.0,0.0,73,0.00,CLR,,0.00,WeatherDisplay:10.37,2013-09-21 16:09:00,
2013-09-22 02:14:00,52.3,43.9,29.91,SE,128,0.0,1.0,73,0.00,CLR,,0.00,WeatherDisplay:10.37,2013-09-21 16:14:00,
2013-09-22 02:19:00,52.5,44.1,29.90,NW,318,0.0,0.0,73,0.00,CLR,,0.00,WeatherDisplay:10.37,2013-09-21 16:19:00,
2013-09-22 02:24:00,52.3,43.9,29.90,West,271,0.0,1.0,73,0.00,CLR,,0.00,WeatherDisplay:10.37,2013-09-21 16:24:00,
2013-09-22 02:29:00,52.2,43.8,29.90,WSW,249,0.0,0.0,73,0.00,CLR,,0.00,WeatherDisplay:10.37,2013-09-21 16:29:00,
2013-09-22 02:34:00,52.0,43.6,29.90,WSW,248,0.0,0.0,73,0.00,CLR,,0.00,WeatherDisplay:10.37,2013-09-21 16:34:00,
2013-09-22 02:39:00,51.9,43.9,29.91,West,264,0.0,0.0,74,0.00,CLR,,0.00,WeatherDisplay:10.37,2013-09-21 16:39:00,
2013-09-22 02:44:00,51.8,43.8,29.91,NNW,342,0.0,0.0,74,0.00,CLR,,0.00,WeatherDisplay:10.37,2013-09-21 16:44:00,
2013-09-22 02:49:00,51.7,43.7,29.90,NNE,13,0.0,0.0,74,0.00,CLR,,0.00,WeatherDisplay:10.37,2013-09-21 16:49:00,
2013-09-22 02:54:00,52.0,44.0,29.91,NE,38,0.0,0.0,74,0.00,CLR,,0.00,WeatherDisplay:10.37,2013-09-21 16:54:00,
2013-09-22 02:59:00,52.2,43.8,29.90,ENE,60,0.0,0.0,73,0.00,CLR,,0.00,WeatherDisplay:10.37,2013-09-21 16:59:00,
2013-09-22 03:04:00,52.0,43.6,29.90,NNW,340,0.0,0.0,73,0.00,CLR,,0.00,WeatherDisplay:10.37,2013-09-21 17:04:00,
2013-09-22 03:09:00,51.8,43.8,29.90,WNW,285,0.0,0.0,74,0.00,CLR,,0.00,WeatherDisplay:10.37,2013-09-21 17:09:00,
2013-09-22 03:14:00,51.6,43.6,29.90,WSW,247,0.0,0.0,74,0.00,CLR,,0.00,WeatherDisplay:10.37,2013-09-21 17:14:00,
2013-09-22 03:19:00,51.4,43.4,29.90,SW,227,0.0,0.0,74,0.00,CLR,,0.00,WeatherDisplay:10.37,2013-09-21 17:19:00,
2013-09-22 03:24:00,51.3,43.3,29.89,SW,225,0.0,0.0,74,0.00,CLR,,0.00,WeatherDisplay:10.37,2013-09-21 17:24:00,
2013-09-22 03:29:00,51.3,43.3,29.90,WSW,237,0.0,0.0,74,0.00,CLR,,0.00,WeatherDisplay:10.37,2013-09-21 17:29:00,
2013-09-22 03:34:00,50.9,42.9,29.90,WSW,258,0.0,0.0,74,0.00,CLR,,0.00,WeatherDisplay:10.37,2013-09-21 17:34:00,
2013-09-22 03:39:00,51.1,43.4,29.90,West,261,0.0,0.0,75,0.00,CLR,,0.00,WeatherDisplay:10.37,2013-09-21 17:39:00,
2013-09-22 03:44:00,50.9,42.9,29.90,WSW,251,0.0,0.0,74,0.00,CLR,,0.00,WeatherDisplay:10.37,2013-09-21 17:44:00,
2013-09-22 03:49:00,50.9,42.9,29.90,WSW,248,0.0,0.0,74,0.00,CLR,,0.00,WeatherDisplay:10.37,2013-09-21 17:49:00,
2013-09-22 03:54:00,50.7,42.7,29.90,WSW,248,0.0,0.0,74,0.00,CLR,,0.00,WeatherDisplay:10.37,2013-09-21 17:54:00,
2013-09-22 03:59:00,50.7,42.7,29.90,West,275,0.0,0.0,74,0.00,CLR,,0.00,WeatherDisplay:10.37,2013-09-21 17:59:00,
2013-09-22 04:04:00,50.5,42.6,29.90,North,354,0.0,0.0,74,0.00,CLR,,0.00,WeatherDisplay:10.37,2013-09-21 18:04:00,
2013-09-22 04:09:00,50.5,42.6,29.90,North,353,0.0,0.0,74,0.00,CLR,,0.00,WeatherDisplay:10.37,2013-09-21 18:09:00,
2013-09-22 04:14:00,50.5,42.9,29.90,NW,326,0.0,0.0,75,0.00,CLR,,0.00,WeatherDisplay:10.37,2013-09-21 18:14:00,
2013-09-22 04:19:00,50.6,42.6,29.91,West,278,0.0,0.0,74,0.00,CLR,,0.00,WeatherDisplay:10.37,2013-09-21 18:19:00,
2013-09-22 04:24:00,50.5,42.6,29.91,SSW,197,0.0,0.0,74,0.00,CLR,,0.00,WeatherDisplay:10.37,2013-09-21 18:24:00,
2013-09-22 04:29:00,50.4,42.4,29.91,SSW,205,0.0,0.0,74,0.00,CLR,,0.00,WeatherDisplay:10.37,2013-09-21 18:29:00,
2013-09-22 04:34:00,50.2,42.3,29.91,SW,219,0.0,0.0,74,0.00,CLR,,0.00,WeatherDisplay:10.37,2013-09-21 18:34:00,
2013-09-22 04:39:00,50.2,42.2,29.91,SSW,195,0.0,0.0,74,0.00,CLR,,0.00,WeatherDisplay:10.37,2013-09-21 18:39:00,
2013-09-22 04:44:00,50.2,42.2,29.91,South,180,0.0,0.0,74,0.00,CLR,,0.00,WeatherDisplay:10.37,2013-09-21 18:44:00,
2013-09-22 04:49:00,49.9,42.0,29.91,South,180,0.0,0.0,74,0.00,CLR,,0.00,WeatherDisplay:10.37,2013-09-21 18:49:00,
2013-09-22 04:54:00,49.8,41.9,29.91,South,186,0.0,0.0,74,0.00,CLR,,0.00,WeatherDisplay:10.37,2013-09-21 18:54:00,
2013-09-22 04:59:00,49.8,41.9,29.91,NW,324,0.0,0.0,74,0.00,CLR,,0.00,WeatherDisplay:10.37,2013-09-21 18:59:00,
2013-09-22 05:04:00,49.7,42.1,29.91,NW,325,0.0,0.0,75,0.00,CLR,,0.00,WeatherDisplay:10.37,2013-09-21 19:04:00,
2013-09-22 05:09:00,49.6,42.0,29.91,WSW,255,0.0,0.0,75,0.00,CLR,,0.00,WeatherDisplay:10.37,2013-09-21 19:09:00,
2013-09-22 05:14:00,49.8,42.2,29.92,SW,221,0.0,0.0,75,0.00,CLR,,0.00,WeatherDisplay:10.37,2013-09-21 19:14:00,
2013-09-22 05:19:00,49.6,42.0,29.92,SW,221,0.0,0.0,75,0.00,CLR,,0.00,WeatherDisplay:10.37,2013-09-21 19:19:00,
2013-09-22 05:24:00,49.5,41.9,29.92,WSW,258,0.0,0.0,75,0.00,CLR,,0.00,WeatherDisplay:10.37,2013-09-21 19:24:00,
2013-09-22 05:29:00,49.6,42.0,29.92,WNW,291,0.0,0.0,75,0.00,CLR,,0.00,WeatherDisplay:10.37,2013-09-21 19:29:00,
2013-09-22 05:34:00,49.3,41.7,29.93,WNW,298,0.0,0.0,75,0.00,CLR,,0.00,WeatherDisplay:10.37,2013-09-21 19:34:00,
2013-09-22 05:39:00,49.3,42.0,29.92,North,360,0.0,0.0,76,0.00,CLR,,0.00,WeatherDisplay:10.37,2013-09-21 19:39:00,
2013-09-22 05:44:00,49.6,42.0,29.93,NE,41,0.0,1.0,75,0.00,CLR,,0.00,WeatherDisplay:10.37,2013-09-21 19:44:00,
2013-09-22 05:49:00,49.6,42.0,29.93,NNE,16,0.0,0.0,75,0.00,CLR,,0.00,WeatherDisplay:10.37,2013-09-21 19:49:00,
2013-09-22 05:54:00,49.4,41.8,29.93,WNW,283,0.0,0.0,75,0.00,CLR,,0.00,WeatherDisplay:10.37,2013-09-21 19:54:00,
2013-09-22 05:59:00,49.3,41.7,29.93,SSW,209,0.0,0.0,75,0.00,CLR,,0.00,WeatherDisplay:10.37,2013-09-21 19:59:00,
2013-09-22 06:04:00,49.6,42.4,29.93,South,190,0.0,0.0,76,0.00,CLR,,0.00,WeatherDisplay:10.37,2013-09-21 20:04:00,
2013-09-22 06:09:00,49.4,41.8,29.93,South,169,0.0,2.0,75,0.00,CLR,,0.00,WeatherDisplay:10.37,2013-09-21 20:09:00,
2013-09-22 06:14:00,49.3,42.0,29.93,South,182,0.0,0.0,76,0.00,CLR,,0.00,WeatherDisplay:10.37,2013-09-21 20:14:00,
2013-09-22 06:19:00,49.3,42.0,29.93,South,181,0.0,0.0,76,0.00,CLR,,0.00,WeatherDisplay:10.37,2013-09-21 20:19:00,
2013-09-22 06:24:00,49.1,41.9,29.93,SSE,163,0.0,0.0,76,0.00,CLR,,0.00,WeatherDisplay:10.37,2013-09-21 20:24:00,
2013-09-22 06:29:00,49.3,42.4,29.93,SSE,161,0.0,0.0,77,0.00,CLR,,0.00,WeatherDisplay:10.37,2013-09-21 20:29:00,
2013-09-22 06:34:00,49.6,42.4,29.93,South,176,0.0,1.0,76,0.00,CLR,,0.00,WeatherDisplay:10.37,2013-09-21 20:34:00,
2013-09-22 06:39:00,49.6,42.4,29.93,SSW,195,0.0,0.0,76,0.00,CLR,,0.00,WeatherDisplay:10.37,2013-09-21 20:39:00,
2013-09-22 06:44:00,49.8,42.9,29.93,SSW,202,0.0,0.0,77,0.00,CLR,,0.00,WeatherDisplay:10.37,2013-09-21 20:44:00,
2013-09-22 06:49:00,49.8,42.9,29.93,SSW,205,0.0,1.0,77,0.00,CLR,,0.00,WeatherDisplay:10.37,2013-09-21 20:49:00,
2013-09-22 06:54:00,50.2,43.2,29.94,SSW,206,0.0,1.0,77,0.00,CLR,,0.00,WeatherDisplay:10.37,2013-09-21 20:54:00,
2013-09-22 06:59:00,50.4,43.4,29.94,SW,231,0.0,0.0,77,0.00,CLR,,0.00,WeatherDisplay:10.37,2013-09-21 20:59:00,
2013-09-22 07:04:00,50.5,43.9,29.94,SW,231,0.0,0.0,78,0.00,CLR,,0.00,WeatherDisplay:10.37,2013-09-21 21:04:00,
2013-09-22 07:09:00,50.7,44.1,29.94,SW,221,0.0,1.0,78,0.00,CLR,,0.00,WeatherDisplay:10.37,2013-09-21 21:09:00,
2013-09-22 07:14:00,50.9,44.3,29.94,SSW,203,0.0,1.0,78,0.00,CLR,,0.00,WeatherDisplay:10.37,2013-09-21 21:14:00,
2013-09-22 07:19:00,51.1,44.5,29.94,SSW,201,0.0,0.0,78,0.00,CLR,,0.00,WeatherDisplay:10.37,2013-09-21 21:19:00,
2013-09-22 07:24:00,51.4,45.1,29.94,SSE,168,0.0,0.0,79,0.00,CLR,,0.00,WeatherDisplay:10.37,2013-09-21 21:24:00,
2013-09-22 07:29:00,51.6,45.3,29.94,SSE,148,0.0,1.0,79,0.00,CLR,,0.00,WeatherDisplay:10.37,2013-09-21 21:29:00,
2013-09-22 07:34:00,51.7,45.4,29.94,South,184,0.0,0.0,79,0.00,CLR,,0.00,WeatherDisplay:10.37,2013-09-21 21:34:00,
2013-09-22 07:39:00,52.1,45.8,29.94,South,183,0.0,0.0,79,0.00,CLR,,0.00,WeatherDisplay:10.37,2013-09-21 21:39:00,
2013-09-22 07:44:00,52.3,46.0,29.94,South,186,0.0,1.0,79,0.00,CLR,,0.00,WeatherDisplay:10.37,2013-09-21 21:44:00,
2013-09-22 07:49:00,52.7,46.4,29.94,SSW,192,0.0,1.0,79,0.00,CLR,,0.00,WeatherDisplay:10.37,2013-09-21 21:49:00,
2013-09-22 07:54:00,53.2,46.8,29.94,SSE,159,0.0,2.0,79,0.00,CLR,,0.00,WeatherDisplay:10.37,2013-09-21 21:54:00,
2013-09-22 07:59:00,53.5,47.5,29.94,SE,137,0.0,2.0,80,0.00,CLR,,0.00,WeatherDisplay:10.37,2013-09-21 21:59:00,
2013-09-22 08:04:00,54.4,48.4,29.94,North,6,2.0,5.0,80,0.00,CLR,,0.00,WeatherDisplay:10.37,2013-09-21 22:04:00,
2013-09-22 08:09:00,55.2,48.8,29.94,North,5,1.0,3.0,79,0.00,CLR,,0.00,WeatherDisplay:10.37,2013-09-21 22:09:00,
2013-09-22 08:14:00,55.9,49.2,29.95,NNW,343,0.0,2.0,78,0.00,CLR,,0.00,WeatherDisplay:10.37,2013-09-21 22:14:00,
2013-09-22 08:19:00,56.2,49.0,29.95,NW,304,0.0,2.0,77,0.00,CLR,,0.00,WeatherDisplay:10.37,2013-09-21 22:19:00,
2013-09-22 08:24:00,56.8,49.4,29.95,West,264,1.0,3.0,76,0.00,CLR,,0.00,WeatherDisplay:10.37,2013-09-21 22:24:00,
2013-09-22 08:29:00,57.4,49.9,29.95,NW,305,2.0,3.0,76,0.00,CLR,,0.00,WeatherDisplay:10.37,2013-09-21 22:29:00,
2013-09-22 08:34:00,57.7,49.5,29.94,NNW,347,2.0,3.0,74,0.00,CLR,,0.00,WeatherDisplay:10.37,2013-09-21 22:34:00,
2013-09-22 08:39:00,58.5,50.2,29.94,North,2,2.0,4.0,74,0.00,CLR,,0.00,WeatherDisplay:10.37,2013-09-21 22:39:00,
2013-09-22 08:44:00,59.1,50.0,29.94,North,0,0.0,3.0,72,0.00,CLR,,0.00,WeatherDisplay:10.37,2013-09-21 22:44:00,
2013-09-22 08:49:00,59.5,50.1,29.94,NNE,16,2.0,4.0,71,0.00,CLR,,0.00,WeatherDisplay:10.37,2013-09-21 22:49:00,
2013-09-22 08:54:00,59.8,50.0,29.94,NNW,347,1.0,6.0,70,0.00,CLR,,0.00,WeatherDisplay:10.37,2013-09-21 22:54:00,
2013-09-22 08:59:00,60.1,50.3,29.94,NNW,336,3.0,6.0,70,0.00,CLR,,0.00,WeatherDisplay:10.37,2013-09-21 22:59:00,
2013-09-22 09:04:00,60.6,50.3,29.95,North,360,5.0,7.0,69,0.00,CLR,,0.00,WeatherDisplay:10.37,2013-09-21 23:04:00,
2013-09-22 09:09:00,60.6,50.4,29.95,NNW,346,2.0,5.0,69,0.00,CLR,,0.00,WeatherDisplay:10.37,2013-09-21 23:09:00,
2013-09-22 09:14:00,61.0,50.3,29.94,WNW,300,2.0,4.0,68,0.00,CLR,,0.00,WeatherDisplay:10.37,2013-09-21 23:14:00,
2013-09-22 09:19:00,61.1,50.1,29.95,NW,317,2.0,7.0,67,0.00,CLR,,0.00,WeatherDisplay:10.37,2013-09-21 23:19:00,
2013-09-22 09:24:00,61.3,50.3,29.95,NW,306,2.0,4.0,67,0.00,CLR,,0.00,WeatherDisplay:10.37,2013-09-21 23:24:00,
2013-09-22 09:29:00,61.5,50.4,29.94,NW,312,3.0,6.0,67,0.00,CLR,,0.00,WeatherDisplay:10.37,2013-09-21 23:29:00,
2013-09-22 09:34:00,61.7,50.2,29.94,NW,312,1.0,6.0,66,0.00,CLR,,0.00,WeatherDisplay:10.37,2013-09-21 23:34:00,
2013-09-22 09:39:00,62.1,50.2,29.94,WNW,291,0.0,6.0,65,0.00,CLR,,0.00,WeatherDisplay:10.37,2013-09-21 23:39:00,
2013-09-22 09:44:00,62.4,50.1,29.94,WNW,283,1.0,4.0,64,0.00,CLR,,0.00,WeatherDisplay:10.37,2013-09-21 23:44:00,
2013-09-22 09:49:00,62.8,50.0,29.93,WNW,288,2.0,7.0,63,0.00,CLR,,0.00,WeatherDisplay:10.37,2013-09-21 23:49:00,
2013-09-22 09:54:00,63.0,49.7,29.93,SW,233,3.0,6.0,62,0.00,CLR,,0.00,WeatherDisplay:10.37,2013-09-21 23:54:00,
2013-09-22 09:59:00,63.1,49.9,29.93,WSW,245,2.0,6.0,62,0.00,CLR,,0.00,WeatherDisplay:10.37,2013-09-21 23:59:00,
2013-09-22 10:04:00,63.5,50.3,29.93,NW,306,3.0,6.0,62,0.00,CLR,,0.00,WeatherDisplay:10.37,2013-09-22 00:04:00,
2013-09-22 10:09:00,63.8,50.5,29.93,NNW,331,1.0,5.0,62,0.00,CLR,,0.00,WeatherDisplay:10.37,2013-09-22 00:09:00,
2013-09-22 10:14:00,64.2,50.5,29.93,WNW,300,1.0,5.0,61,0.00,CLR,,0.00,WeatherDisplay:10.37,2013-09-22 00:14:00,
2013-09-22 10:19:00,64.6,50.8,29.93,WNW,297,2.0,5.0,61,0.00,CLR,,0.00,WeatherDisplay:10.37,2013-09-22 00:19:00,
2013-09-22 10:24:00,64.2,50.0,29.92,WNW,302,2.0,4.0,60,0.00,CLR,,0.00,WeatherDisplay:10.37,2013-09-22 00:24:00,
2013-09-22 10:29:00,65.1,50.9,29.92,NNW,343,1.0,6.0,60,0.00,CLR,,0.00,WeatherDisplay:10.37,2013-09-22 00:29:00,
2013-09-22 10:34:00,65.6,50.9,29.92,NNW,347,2.0,5.0,59,0.00,CLR,,0.00,WeatherDisplay:10.37,2013-09-22 00:34:00,
2013-09-22 10:39:00,66.0,51.2,29.92,NNE,16,5.0,5.0,59,0.00,CLR,,0.00,WeatherDisplay:10.37,2013-09-22 00:39:00,
2013-09-22 10:44:00,66.2,51.0,29.92,NNW,332,2.0,6.0,58,0.00,CLR,,0.00,WeatherDisplay:10.37,2013-09-22 00:44:00,
2013-09-22 10:49:00,66.5,51.3,29.92,NNW,335,5.0,7.0,58,0.00,CLR,,0.00,WeatherDisplay:10.37,2013-09-22 00:49:00,
2013-09-22 10:54:00,66.9,50.7,29.92,NNW,333,3.0,7.0,56,0.00,CLR,,0.00,WeatherDisplay:10.37,2013-09-22 00:54:00,
2013-09-22 10:59:00,66.7,50.5,29.92,NW,316,1.0,5.0,56,0.00,CLR,,0.00,WeatherDisplay:10.37,2013-09-22 00:59:00,
2013-09-22 11:04:00,66.7,50.5,29.91,NW,319,1.0,4.0,56,0.00,CLR,,0.00,WeatherDisplay:10.37,2013-09-22 01:04:00,
2013-09-22 11:09:00,67.1,50.4,29.91,NW,325,2.0,8.0,55,0.00,CLR,,0.00,WeatherDisplay:10.37,2013-09-22 01:09:00,
2013-09-22 11:14:00,67.3,50.6,29.91,NW,304,2.0,5.0,55,0.00,CLR,,0.00,WeatherDisplay:10.37,2013-09-22 01:14:00,
2013-09-22 11:19:00,67.8,50.5,29.91,WNW,303,5.0,8.0,54,0.00,CLR,,0.00,WeatherDisplay:10.37,2013-09-22 01:19:00,
2013-09-22 11:24:00,67.8,49.5,29.91,WNW,287,6.0,8.0,52,0.00,CLR,,0.00,WeatherDisplay:10.37,2013-09-22 01:24:00,
2013-09-22 11:29:00,67.9,50.1,29.91,West,277,3.0,5.0,53,0.00,CLR,,0.00,WeatherDisplay:10.37,2013-09-22 01:29:00,
2013-09-22 11:34:00,68.2,50.4,29.91,NW,313,2.0,6.0,53,0.00,CLR,,0.00,WeatherDisplay:10.37,2013-09-22 01:34:00,
2013-09-22 11:39:00,68.5,49.7,29.91,NNW,335,3.0,5.0,51,0.00,CLR,,0.00,WeatherDisplay:10.37,2013-09-22 01:39:00,
2013-09-22 11:44:00,68.8,49.4,29.91,West,269,3.0,6.0,50,0.00,CLR,,0.00,WeatherDisplay:10.37,2013-09-22 01:44:00,
2013-09-22 11:49:00,68.9,49.0,29.91,West,274,1.0,6.0,49,0.00,CLR,,0.00,WeatherDisplay:10.37,2013-09-22 01:49:00,
2013-09-22 11:54:00,69.1,49.7,29.91,WNW,302,1.0,7.0,50,0.00,CLR,,0.00,WeatherDisplay:10.37,2013-09-22 01:54:00,
2013-09-22 11:59:00,69.4,49.4,29.90,NW,323,2.0,8.0,49,0.00,CLR,,0.00,WeatherDisplay:10.37,2013-09-22 01:59:00,
2013-09-22 12:04:00,69.4,49.4,29.90,NW,322,5.0,7.0,49,0.00,CLR,,0.00,WeatherDisplay:10.37,2013-09-22 02:04:00,
2013-09-22 12:09:00,69.6,49.1,29.90,NW,305,3.0,7.0,48,0.00,CLR,,0.00,WeatherDisplay:10.37,2013-09-22 02:09:00,
2013-09-22 12:14:00,70.0,48.8,29.90,NW,322,3.0,8.0,47,0.00,CLR,,0.00,WeatherDisplay:10.37,2013-09-22 02:14:00,
2013-09-22 12:19:00,70.2,49.0,29.90,NNW,344,2.0,6.0,47,0.00,CLR,,0.00,WeatherDisplay:10.37,2013-09-22 02:19:00,
2013-09-22 12:24:00,69.8,48.7,29.89,West,261,5.0,8.0,47,0.00,CLR,,0.00,WeatherDisplay:10.37,2013-09-22 02:24:00,
2013-09-22 12:29:00,70.0,48.2,29.89,SW,224,3.0,7.0,46,0.00,CLR,,0.00,WeatherDisplay:10.37,2013-09-22 02:29:00,
2013-09-22 12:34:00,70.3,48.6,29.89,WSW,238,3.0,7.0,46,0.00,CLR,,0.00,WeatherDisplay:10.37,2013-09-22 02:34:00,
2013-09-22 12:39:00,70.5,48.1,29.89,West,259,1.0,6.0,45,0.00,CLR,,0.00,WeatherDisplay:10.37,2013-09-22 02:39:00,
2013-09-22 12:44:00,70.5,48.1,29.89,NNW,346,0.0,7.0,45,0.00,CLR,,0.00,WeatherDisplay:10.37,2013-09-22 02:44:00,
2013-09-22 12:54:00,70.9,47.9,29.88,SW,215,1.0,10.0,44,0.00,CLR,,0.00,WeatherDisplay:10.37,2013-09-22 02:54:00,
2013-09-22 12:59:00,71.1,48.1,29.88,WSW,242,0.0,7.0,44,0.00,CLR,,0.00,WeatherDisplay:10.37,2013-09-22 02:59:00,
2013-09-22 13:04:00,71.2,47.6,29.88,North,355,1.0,6.0,43,0.00,CLR,,0.00,WeatherDisplay:10.37,2013-09-22 03:04:00,
2013-09-22 13:09:00,71.3,47.7,29.88,East,85,3.0,8.0,43,0.00,CLR,,0.00,WeatherDisplay:10.37,2013-09-22 03:09:00,
2013-09-22 13:14:00,71.4,47.1,29.88,ENE,62,2.0,4.0,42,0.00,CLR,,0.00,WeatherDisplay:10.37,2013-09-22 03:14:00,
2013-09-22 13:19:00,71.8,46.8,29.87,North,4,3.0,6.0,41,0.00,CLR,,0.00,WeatherDisplay:10.37,2013-09-22 03:19:00,
2013-09-22 13:24:00,72.0,47.0,29.87,NW,319,3.0,5.0,41,0.00,CLR,,0.00,WeatherDisplay:10.37,2013-09-22 03:24:00,
2013-09-22 13:29:00,72.1,46.5,29.87,WSW,253,2.0,7.0,40,0.00,CLR,,0.00,WeatherDisplay:10.37,2013-09-22 03:29:00,
2013-09-22 13:34:00,72.2,47.2,29.87,WSW,241,2.0,5.0,41,0.00,CLR,,0.00,WeatherDisplay:10.37,2013-09-22 03:34:00,
2013-09-22 13:39:00,72.3,46.6,29.87,East,93,5.0,6.0,40,0.00,CLR,,0.00,WeatherDisplay:10.37,2013-09-22 03:39:00,
2013-09-22 13:44:00,72.1,46.5,29.86,ESE,109,1.0,6.0,40,0.00,CLR,,0.00,WeatherDisplay:10.37,2013-09-22 03:44:00,
2013-09-22 13:49:00,72.1,46.5,29.86,SSE,161,2.0,4.0,40,0.00,CLR,,0.00,WeatherDisplay:10.37,2013-09-22 03:49:00,
2013-09-22 13:54:00,72.3,46.6,29.86,WSW,249,1.0,2.0,40,0.00,CLR,,0.00,WeatherDisplay:10.37,2013-09-22 03:54:00,
2013-09-22 13:59:00,72.1,46.5,29.86,East,79,1.0,6.0,40,0.00,CLR,,0.00,WeatherDisplay:10.37,2013-09-22 03:59:00,
2013-09-22 14:04:00,72.3,49.8,29.86,ENE,61,2.0,6.0,45,0.00,CLR,,0.00,WeatherDisplay:10.37,2013-09-22 04:04:00,
2013-09-22 14:09:00,72.0,50.7,29.86,ESE,104,6.0,8.0,47,0.00,CLR,,0.00,WeatherDisplay:10.37,2013-09-22 04:09:00,
2013-09-22 14:14:00,72.0,50.7,29.86,SE,128,5.0,8.0,47,0.00,CLR,,0.00,WeatherDisplay:10.37,2013-09-22 04:14:00,
2013-09-22 14:19:00,71.8,50.5,29.86,SE,126,5.0,8.0,47,0.00,CLR,,0.00,WeatherDisplay:10.37,2013-09-22 04:19:00,
2013-09-22 14:24:00,71.8,50.5,29.86,ESE,115,3.0,8.0,47,0.00,CLR,,0.00,WeatherDisplay:10.37,2013-09-22 04:24:00,
2013-09-22 14:29:00,71.8,50.5,29.86,ESE,111,5.0,9.0,47,0.00,CLR,,0.00,WeatherDisplay:10.37,2013-09-22 04:29:00,
2013-09-22 14:34:00,71.8,50.5,29.86,SE,129,7.0,10.0,47,0.00,CLR,,0.00,WeatherDisplay:10.37,2013-09-22 04:34:00,
2013-09-22 14:39:00,71.8,51.0,29.86,SE,138,7.0,10.0,48,0.00,CLR,,0.00,WeatherDisplay:10.37,2013-09-22 04:39:00,
2013-09-22 14:44:00,72.1,51.9,29.86,SE,144,8.0,11.0,49,0.00,CLR,,0.00,WeatherDisplay:10.37,2013-09-22 04:44:00,
2013-09-22 14:49:00,72.5,52.2,29.86,SE,145,6.0,9.0,49,0.00,CLR,,0.00,WeatherDisplay:10.37,2013-09-22 04:49:00,
2013-09-22 14:54:00,72.3,51.5,29.86,SE,135,5.0,10.0,48,0.00,CLR,,0.00,WeatherDisplay:10.37,2013-09-22 04:54:00,
2013-09-22 14:59:00,72.0,51.8,29.86,ESE,112,5.0,9.0,49,0.00,CLR,,0.00,WeatherDisplay:10.37,2013-09-22 04:59:00,
2013-09-22 15:04:00,71.8,51.6,29.86,East,97,2.0,7.0,49,0.00,CLR,,0.00,WeatherDisplay:10.37,2013-09-22 05:04:00,
2013-09-22 15:09:00,71.8,52.1,29.86,ESE,115,5.0,11.0,50,0.00,CLR,,0.00,WeatherDisplay:10.37,2013-09-22 05:09:00,
2013-09-22 15:14:00,71.6,51.4,29.85,SE,124,5.0,9.0,49,0.00,CLR,,0.00,WeatherDisplay:10.37,2013-09-22 05:14:00,
2013-09-22 15:19:00,71.4,51.8,29.86,ESE,120,3.0,8.0,50,0.00,CLR,,0.00,WeatherDisplay:10.37,2013-09-22 05:19:00,
2013-09-22 15:24:00,71.4,51.3,29.86,ESE,118,5.0,8.0,49,0.00,CLR,,0.00,WeatherDisplay:10.37,2013-09-22 05:24:00,
2013-09-22 15:29:00,71.8,52.7,29.86,ESE,119,3.0,7.0,51,0.00,CLR,,0.00,WeatherDisplay:10.37,2013-09-22 05:29:00,
2013-09-22 15:34:00,71.8,52.1,29.86,East,92,5.0,11.0,50,0.00,CLR,,0.00,WeatherDisplay:10.37,2013-09-22 05:34:00,
2013-09-22 15:39:00,71.4,52.3,29.86,East,81,5.0,12.0,51,0.00,CLR,,0.00,WeatherDisplay:10.37,2013-09-22 05:39:00,
2013-09-22 15:44:00,71.2,52.7,29.86,East,81,5.0,8.0,52,0.00,CLR,,0.00,WeatherDisplay:10.37,2013-09-22 05:44:00,
2013-09-22 15:49:00,71.2,52.7,29.86,East,87,5.0,12.0,52,0.00,CLR,,0.00,WeatherDisplay:10.37,2013-09-22 05:49:00,
2013-09-22 15:54:00,71.2,52.7,29.86,East,84,3.0,9.0,52,0.00,CLR,,0.00,WeatherDisplay:10.37,2013-09-22 05:54:00,
2013-09-22 15:59:00,71.2,53.2,29.86,East,91,7.0,11.0,53,0.00,CLR,,0.00,WeatherDisplay:10.37,2013-09-22 05:59:00,
2013-09-22 16:04:00,70.9,53.4,29.86,East,101,5.0,11.0,54,0.00,CLR,,0.00,WeatherDisplay:10.37,2013-09-22 06:04:00,
2013-09-22 16:09:00,70.9,53.4,29.87,East,92,6.0,11.0,54,0.00,CLR,,0.00,WeatherDisplay:10.37,2013-09-22 06:09:00,
2013-09-22 16:14:00,70.5,53.1,29.86,East,89,6.0,11.0,54,0.00,CLR,,0.00,WeatherDisplay:10.37,2013-09-22 06:14:00,
2013-09-22 16:19:00,70.3,53.4,29.87,East,83,3.0,9.0,55,0.00,CLR,,0.00,WeatherDisplay:10.37,2013-09-22 06:19:00,
2013-09-22 16:24:00,70.2,53.7,29.87,East,82,5.0,8.0,56,0.00,CLR,,0.00,WeatherDisplay:10.37,2013-09-22 06:24:00,
2013-09-22 16:29:00,70.0,53.6,29.87,ENE,77,3.0,13.0,56,0.00,CLR,,0.00,WeatherDisplay:10.37,2013-09-22 06:29:00,
2013-09-22 16:34:00,69.7,53.3,29.87,East,86,5.0,10.0,56,0.00,CLR,,0.00,WeatherDisplay:10.37,2013-09-22 06:34:00,
2013-09-22 16:39:00,69.6,53.2,29.87,East,98,2.0,7.0,56,0.00,CLR,,0.00,WeatherDisplay:10.37,2013-09-22 06:39:00,
2013-09-22 16:44:00,69.6,53.7,29.87,ESE,107,5.0,7.0,57,0.00,CLR,,0.00,WeatherDisplay:10.37,2013-09-22 06:44:00,
2013-09-22 16:49:00,69.6,54.2,29.87,East,98,3.0,6.0,58,0.00,CLR,,0.00,WeatherDisplay:10.37,2013-09-22 06:49:00,
2013-09-22 16:54:00,69.4,54.0,29.87,ENE,71,6.0,10.0,58,0.00,CLR,,0.00,WeatherDisplay:10.37,2013-09-22 06:54:00,
2013-09-22 16:59:00,69.1,54.1,29.88,East,79,5.0,12.0,59,0.00,CLR,,0.00,WeatherDisplay:10.37,2013-09-22 06:59:00,
2013-09-22 17:04:00,68.8,53.9,29.88,East,101,3.0,7.0,59,0.00,CLR,,0.00,WeatherDisplay:10.37,2013-09-22 07:04:00,
2013-09-22 17:09:00,68.8,53.9,29.88,ESE,109,2.0,8.0,59,0.00,CLR,,0.00,WeatherDisplay:10.37,2013-09-22 07:09:00,
2013-09-22 17:14:00,68.7,54.3,29.88,East,94,3.0,7.0,60,0.00,CLR,,0.00,WeatherDisplay:10.37,2013-09-22 07:14:00,
2013-09-22 17:19:00,68.5,54.1,29.88,East,96,3.0,6.0,60,0.00,CLR,,0.00,WeatherDisplay:10.37,2013-09-22 07:19:00,
2013-09-22 17:24:00,68.4,53.9,29.88,East,90,6.0,9.0,60,0.00,CLR,,0.00,WeatherDisplay:10.37,2013-09-22 07:24:00,
2013-09-22 17:29:00,68.2,53.8,29.88,East,91,2.0,7.0,60,0.00,CLR,,0.00,WeatherDisplay:10.37,2013-09-22 07:29:00,
2013-09-22 17:34:00,68.0,54.0,29.88,East,80,1.0,5.0,61,0.00,CLR,,0.00,WeatherDisplay:10.37,2013-09-22 07:34:00,
2013-09-22 17:39:00,67.8,53.9,29.88,ENE,76,2.0,5.0,61,0.00,CLR,,0.00,WeatherDisplay:10.37,2013-09-22 07:39:00,
2013-09-22 17:44:00,67.8,53.8,29.89,East,98,0.0,3.0,61,0.00,CLR,,0.00,WeatherDisplay:10.37,2013-09-22 07:44:00,
2013-09-22 17:49:00,67.6,53.7,29.89,East,91,0.0,0.0,61,0.00,CLR,,0.00,WeatherDisplay:10.37,2013-09-22 07:49:00,
2013-09-22 17:54:00,67.4,53.5,29.89,East,80,0.0,2.0,61,0.00,CLR,,0.00,WeatherDisplay:10.37,2013-09-22 07:54:00,
2013-09-22 17:59:00,67.3,52.9,29.89,East,83,1.0,2.0,60,0.00,CLR,,0.00,WeatherDisplay:10.37,2013-09-22 07:59:00,
2013-09-22 18:04:00,67.1,53.2,29.89,ESE,108,0.0,1.0,61,0.00,CLR,,0.00,WeatherDisplay:10.37,2013-09-22 08:04:00,
2013-09-22 18:09:00,66.9,53.0,29.90,East,92,0.0,1.0,61,0.00,CLR,,0.00,WeatherDisplay:10.37,2013-09-22 08:09:00,
2013-09-22 18:14:00,66.7,52.9,29.90,East,82,0.0,1.0,61,0.00,CLR,,0.00,WeatherDisplay:10.37,2013-09-22 08:14:00,
2013-09-22 18:19:00,66.6,53.1,29.90,ENE,75,0.0,0.0,62,0.00,CLR,,0.00,WeatherDisplay:10.37,2013-09-22 08:19:00,
2013-09-22 18:24:00,66.2,52.8,29.90,NE,51,0.0,0.0,62,0.00,CLR,,0.00,WeatherDisplay:10.37,2013-09-22 08:24:00,
2013-09-22 18:29:00,66.0,52.6,29.90,NE,39,0.0,1.0,62,0.00,CLR,,0.00,WeatherDisplay:10.37,2013-09-22 08:29:00,
2013-09-22 18:34:00,66.0,53.0,29.90,ENE,60,0.0,1.0,63,0.00,CLR,,0.00,WeatherDisplay:10.37,2013-09-22 08:34:00,
2013-09-22 18:39:00,65.8,52.9,29.90,North,8,0.0,1.0,63,0.00,CLR,,0.00,WeatherDisplay:10.37,2013-09-22 08:39:00,
2013-09-22 18:44:00,65.6,52.7,29.90,NNE,12,0.0,2.0,63,0.00,CLR,,0.00,WeatherDisplay:10.37,2013-09-22 08:44:00,
2013-09-22 18:49:00,65.5,53.0,29.90,ENE,58,0.0,2.0,64,0.00,CLR,,0.00,WeatherDisplay:10.37,2013-09-22 08:49:00,
2013-09-22 18:54:00,65.5,52.5,29.91,NNE,30,1.0,2.0,63,0.00,CLR,,0.00,WeatherDisplay:10.37,2013-09-22 08:54:00,
2013-09-22 18:59:00,65.5,52.1,29.91,ENE,58,1.0,4.0,62,0.00,CLR,,0.00,WeatherDisplay:10.37,2013-09-22 08:59:00,
2013-09-22 19:04:00,65.6,52.2,29.91,ENE,61,0.0,1.0,62,0.00,CLR,,0.00,WeatherDisplay:10.37,2013-09-22 09:04:00,
2013-09-22 19:09:00,65.5,52.5,29.91,ENE,73,0.0,1.0,63,0.00,CLR,,0.00,WeatherDisplay:10.37,2013-09-22 09:09:00,
2013-09-22 19:14:00,65.2,52.3,29.91,ENE,63,0.0,1.0,63,0.00,CLR,,0.00,WeatherDisplay:10.37,2013-09-22 09:14:00,
2013-09-22 19:19:00,65.0,52.1,29.91,NNE,33,0.0,1.0,63,0.00,CLR,,0.00,WeatherDisplay:10.37,2013-09-22 09:19:00,
2013-09-22 19:24:00,64.9,52.0,29.91,North,7,0.0,1.0,63,0.00,CLR,,0.00,WeatherDisplay:10.37,2013-09-22 09:24:00,
2013-09-22 19:29:00,64.7,52.2,29.91,East,91,0.0,1.0,64,0.00,CLR,,0.00,WeatherDisplay:10.37,2013-09-22 09:29:00,
2013-09-22 19:34:00,64.6,52.1,29.91,East,94,0.0,4.0,64,0.00,CLR,,0.00,WeatherDisplay:10.37,2013-09-22 09:34:00,
2013-09-22 19:39:00,64.6,52.1,29.92,NE,49,0.0,2.0,64,0.00,CLR,,0.00,WeatherDisplay:10.37,2013-09-22 09:39:00,
2013-09-22 19:44:00,64.5,52.5,29.91,NNE,33,0.0,2.0,65,0.00,CLR,,0.00,WeatherDisplay:10.37,2013-09-22 09:44:00,
2013-09-22 19:49:00,64.2,52.2,29.92,SE,140,0.0,0.0,65,0.00,CLR,,0.00,WeatherDisplay:10.37,2013-09-22 09:49:00,
2013-09-22 19:54:00,64.0,52.0,29.92,NW,317,2.0,4.0,65,0.00,CLR,,0.00,WeatherDisplay:10.37,2013-09-22 09:54:00,
2013-09-22 19:59:00,64.1,52.5,29.92,WNW,301,0.0,0.0,66,0.00,CLR,,0.00,WeatherDisplay:10.37,2013-09-22 09:59:00,
2013-09-22 20:04:00,64.0,52.4,29.92,ESE,107,0.0,0.0,66,0.00,CLR,,0.00,WeatherDisplay:10.37,2013-09-22 10:04:00,
2013-09-22 20:09:00,64.0,52.9,29.92,ENE,61,0.0,0.0,67,0.00,CLR,,0.00,WeatherDisplay:10.37,2013-09-22 10:09:00,
2013-09-22 20:14:00,64.0,52.9,29.92,North,1,0.0,1.0,67,0.00,CLR,,0.00,WeatherDisplay:10.37,2013-09-22 10:14:00,
2013-09-22 20:19:00,64.0,52.9,29.94,WSW,257,2.0,5.0,67,0.00,CLR,,0.00,WeatherDisplay:10.37,2013-09-22 10:19:00,
2013-09-22 20:24:00,63.7,52.5,29.96,SW,222,8.0,12.0,67,0.00,CLR,,0.00,WeatherDisplay:10.37,2013-09-22 10:24:00,
2013-09-22 20:29:00,63.0,52.3,29.97,SW,219,10.0,16.0,68,0.00,CLR,,0.00,WeatherDisplay:10.37,2013-09-22 10:29:00,
2013-09-22 20:34:00,63.0,52.2,29.98,SW,220,6.0,12.0,68,0.00,CLR,,0.00,WeatherDisplay:10.37,2013-09-22 10:34:00,
2013-09-22 20:39:00,63.1,52.8,29.97,SW,229,0.0,3.0,69,0.00,CLR,,0.00,WeatherDisplay:10.37,2013-09-22 10:39:00,
2013-09-22 20:44:00,63.2,53.2,29.93,NE,37,6.0,9.0,70,0.00,CLR,,0.00,WeatherDisplay:10.37,2013-09-22 10:44:00,
2013-09-22 20:49:00,63.0,53.8,29.91,NE,54,5.0,8.0,72,0.00,CLR,,0.00,WeatherDisplay:10.37,2013-09-22 10:49:00,
2013-09-22 21:04:00,63.1,53.9,29.92,ENE,78,0.0,2.0,72,0.00,CLR,,0.00,WeatherDisplay:10.37,2013-09-22 11:04:00,
2013-09-22 21:09:00,62.9,54.1,29.92,NNE,16,3.0,5.0,73,0.00,CLR,,0.00,WeatherDisplay:10.37,2013-09-22 11:09:00,
2013-09-22 21:14:00,62.8,53.6,29.92,North,5,2.0,5.0,72,0.00,CLR,,0.00,WeatherDisplay:10.37,2013-09-22 11:14:00,
2013-09-22 21:19:00,62.8,54.0,29.93,North,355,0.0,3.0,73,0.00,CLR,,0.00,WeatherDisplay:10.37,2013-09-22 11:19:00,
2013-09-22 21:24:00,62.8,54.0,29.93,NNW,344,0.0,2.0,73,0.00,CLR,,0.00,WeatherDisplay:10.37,2013-09-22 11:24:00,
2013-09-22 21:29:00,62.4,53.6,29.92,ESE,102,0.0,2.0,73,0.00,CLR,,0.00,WeatherDisplay:10.37,2013-09-22 11:29:00,
2013-09-22 21:34:00,62.4,53.6,29.92,ESE,123,0.0,2.0,73,0.00,CLR,,0.00,WeatherDisplay:10.37,2013-09-22 11:34:00,
2013-09-22 21:39:00,62.1,53.3,29.92,SW,228,0.0,0.0,73,0.00,CLR,,0.00,WeatherDisplay:10.37,2013-09-22 11:39:00,
2013-09-22 21:44:00,61.9,53.5,29.92,WSW,258,0.0,1.0,74,0.00,CLR,,0.00,WeatherDisplay:10.37,2013-09-22 11:44:00,
2013-09-22 21:49:00,61.9,53.5,29.93,WNW,283,0.0,2.0,74,0.00,CLR,,0.00,WeatherDisplay:10.37,2013-09-22 11:49:00,
2013-09-22 21:54:00,61.5,53.2,29.93,West,279,0.0,2.0,74,0.00,CLR,,0.00,WeatherDisplay:10.37,2013-09-22 11:54:00,
2013-09-22 21:59:00,61.5,53.2,29.93,WNW,293,1.0,3.0,74,0.00,CLR,,0.00,WeatherDisplay:10.37,2013-09-22 11:59:00,
2013-09-22 22:04:00,61.5,53.2,29.92,NW,305,1.0,2.0,74,0.00,CLR,,0.00,WeatherDisplay:10.37,2013-09-22 12:04:00,
2013-09-22 22:09:00,61.3,53.0,29.92,NW,316,0.0,2.0,74,0.00,CLR,,0.00,WeatherDisplay:10.37,2013-09-22 12:09:00,
2013-09-22 22:14:00,61.2,52.8,29.92,NW,319,0.0,0.0,74,0.00,CLR,,0.00,WeatherDisplay:10.37,2013-09-22 12:14:00,
2013-09-22 22:19:00,61.0,52.6,29.92,WNW,290,0.0,0.0,74,0.00,CLR,,0.00,WeatherDisplay:10.37,2013-09-22 12:19:00,
2013-09-22 22:24:00,60.6,52.6,29.92,WSW,237,0.0,0.0,75,0.00,CLR,,0.00,WeatherDisplay:10.37,2013-09-22 12:24:00,
2013-09-22 22:29:00,60.5,52.6,29.92,SW,217,0.0,0.0,75,0.00,CLR,,0.00,WeatherDisplay:10.37,2013-09-22 12:29:00,
2013-09-22 22:34:00,60.4,52.5,29.92,WSW,258,0.0,0.0,75,0.00,CLR,,0.00,WeatherDisplay:10.37,2013-09-22 12:34:00,
2013-09-22 22:39:00,60.1,52.5,29.92,WNW,292,0.0,0.0,76,0.00,CLR,,0.00,WeatherDisplay:10.37,2013-09-22 12:39:00,
2013-09-22 22:44:00,60.1,52.5,29.92,WNW,293,0.0,1.0,76,0.00,CLR,,0.00,WeatherDisplay:10.37,2013-09-22 12:44:00,
2013-09-22 22:49:00,60.0,52.4,29.92,WNW,295,0.0,1.0,76,0.00,CLR,,0.00,WeatherDisplay:10.37,2013-09-22 12:49:00,
2013-09-22 22:54:00,60.1,52.5,29.92,North,6,0.0,2.0,76,0.00,CLR,,0.00,WeatherDisplay:10.37,2013-09-22 12:54:00,
2013-09-22 22:59:00,59.9,52.3,29.92,WNW,303,1.0,2.0,76,0.00,CLR,,0.00,WeatherDisplay:10.37,2013-09-22 12:59:00,
2013-09-22 23:04:00,59.8,51.8,29.91,WNW,291,0.0,2.0,75,0.00,CLR,,0.00,WeatherDisplay:10.37,2013-09-22 13:04:00,
2013-09-22 23:09:00,59.7,51.8,29.92,NNW,337,0.0,0.0,75,0.00,CLR,,0.00,WeatherDisplay:10.37,2013-09-22 13:09:00,
2013-09-22 23:14:00,59.7,51.8,29.91,WNW,303,0.0,1.0,75,0.00,CLR,,0.00,WeatherDisplay:10.37,2013-09-22 13:14:00,
2013-09-22 23:19:00,59.5,51.6,29.91,NW,308,0.0,1.0,75,0.00,CLR,,0.00,WeatherDisplay:10.37,2013-09-22 13:19:00,
2013-09-22 23:24:00,59.3,51.4,29.91,NW,308,0.0,1.0,75,0.00,CLR,,0.00,WeatherDisplay:10.37,2013-09-22 13:24:00,
2013-09-22 23:29:00,59.1,51.2,29.91,SW,231,0.0,0.0,75,0.00,CLR,,0.00,WeatherDisplay:10.37,2013-09-22 13:29:00,
2013-09-22 23:34:00,58.8,51.3,29.91,WSW,239,0.0,2.0,76,0.00,CLR,,0.00,WeatherDisplay:10.37,2013-09-22 13:34:00,
2013-09-22 23:39:00,58.8,51.3,29.91,West,267,0.0,1.0,76,0.00,CLR,,0.00,WeatherDisplay:10.37,2013-09-22 13:39:00,
2013-09-22 23:44:00,58.8,51.3,29.91,West,269,0.0,0.0,76,0.00,CLR,,0.00,WeatherDisplay:10.37,2013-09-22 13:44:00,
2013-09-22 23:49:00,58.8,51.3,29.91,SW,235,1.0,2.0,76,0.00,CLR,,0.00,WeatherDisplay:10.37,2013-09-22 13:49:00,
2013-09-22 23:54:00,58.8,51.3,29.92,SSW,201,1.0,2.0,76,0.00,CLR,,0.00,WeatherDisplay:10.37,2013-09-22 13:54:00,
2013-09-22 23:59:00,58.8,51.6,29.92,South,170,0.0,1.0,77,0.00,CLR,,0.00,WeatherDisplay:10.37,2013-09-22 13:59:00,